Location: Bacharowice
(49.9333°N, 19.5833°E)
Time: 06:19:41
(UTC+00:00)

Envisat - Pass Details

Date: 09 October 2022
Orbit: 763 x 765 km, 98.2° (Epoch: 09 December)

Event Time Altitude Azimuth Distance (km) Brightness Sun altitude
Rises 03:32:06 0° 12° (NNE) 3,247 6.5 -13.9°
Reaches altitude 10° 03:34:26 10° 9° (N) 2,316 5.7 -13.5°
Maximum altitude 03:39:29 66° 289° (WNW) 839 3.0 -12.7°
Drops below altitude 10° 03:44:30 10° 208° (SSW) 2,299 5.2 -11.9°
Sets 03:46:48 0° 205° (SSW) 3,220 5.9 -11.6°
